Regional Weather Roundup
Issued by NWS Mobile, AL

Home | Current Version | Previous Version | Text Only | Print | Product List | Glossary On
Versions: 1 2 3 4 5 6 7 8 9 10 11 12 13 14 15 16 17 18 19 20 21 22 23 24 25 26 27
000
ASUS44 KMOB 090612
RWRMOB
REGIONAL WEATHER ROUNDUP
NATIONAL WEATHER SERVICE MOBILE AL
1200 AM CST FRI DEC 09 2016

NOTE: "FAIR" INDICATES FEW OR NO CLOUDS BELOW 12,000 FEET WITH NO
      SIGNIFICANT WEATHER AND/OR OBSTRUCTIONS TO VISIBILITY.

  * THESE STATIONS ARE PART OF THE UNIVERSITY OF SOUTH ALABAMA
    MESONET AND ARE NOT UNDER NWS OR FAA QUALITY CONTROL.

ALZ061>064-090700-
COASTAL ALABAMA

CITY           SKY/WX    TMP DP  RH WIND       PRES   REMARKS
MOBILE REG APT CLEAR     41  24  51 N12       30.44S
6HR MIN TEMP:  41; 6HR MAX TEMP:  49;

BROOKLEY FIELD CLEAR     43  27  53 N14       30.45R
6HR MIN TEMP:  43; 6HR MAX TEMP:  52;

USA CAMPUS*      N/A     39  27  60 NE5       30.43F
DOG RIVER*       N/A     41  28  60 N8        31.32S


CITY           SKY/WX    TMP DP  RH WIND       PRES   REMARKS
GULF SHORES    MOCLDY    42  30  62 N7        30.41S

$$

ALZ051>060-090700-
INTERIOR SOUTHWEST AND SOUTH CENTRAL ALABAMA

CITY           SKY/WX    TMP DP  RH WIND       PRES   REMARKS
GREENVILLE     CLOUDY    40  23  50 N9        30.41S
6HR MIN TEMP:  40; 6HR MAX TEMP:  47;

EVERGREEN      CLOUDY    39  26  59 N8        30.43F
6HR MIN TEMP:  39; 6HR MAX TEMP:  46;

ATMORE*          N/A     39  28  65 S10       30.44S
ANDALUSIA/OPP  CLEAR     42  26  53 N6        30.40F
6HR MIN TEMP:  42; 6HR MAX TEMP:  51;

ANDALUSIA*       N/A     39  27  60 VRB6      30.38F
FLORALA APT    PTCLDY    39  27  62 N7        30.40F
6HR MIN TEMP:  39; 6HR MAX TEMP:  48;

FLORALA*         N/A     39  28  65 W8        31.22F

$$

FLZ001>006-090700-
WESTERN FLORIDA PANHANDLE

CITY           SKY/WX    TMP DP  RH WIND       PRES   REMARKS
PENSACOLA      PTCLDY    44  28  53 N9        30.40R
6HR MIN TEMP:  44; 6HR MAX TEMP:  52;

NAS PENSACOLA  MOCLDY    44  27  51 N12       30.40R
6HR MIN TEMP:  44; 6HR MAX TEMP:  52;

MILTON         LGT RAIN  40  28  62 N8        30.39F
6HR MIN TEMP:  40; 6HR MAX TEMP:  49; 6HR PCP: TRACE;

WHTNG S FIELD  MOCLDY    44  29  55 N10       30.40S
6HR MIN TEMP:  44; 6HR MAX TEMP:  52;



CITY           SKY/WX    TMP DP  RH WIND       PRES   REMARKS
JAY*             N/A     39  27  60 N12       30.42S
DUKE FIELD     MOCLDY    43  26  52 N10       30.38F
CRESTVIEW      PTCLDY    42  27  55 N6        30.40F
6HR MIN TEMP:  42; 6HR MAX TEMP:  51;

VALPARAISO     MOCLDY    45  25  44 N12       30.38F
6HR MIN TEMP:  45; 6HR MAX TEMP:  53;

DESTIN         CLOUDY    49  27  42 N15G24    30.38F
6HR MIN TEMP:  49; 6HR MAX TEMP:  56;


$$

MSZ076-079-090700-
INTERIOR SOUTHEAST MISSISSIPPI

CITY           SKY/WX    TMP DP  RH WIND       PRES   REMARKS
LEAKESVILLE*   NOT AVBL
AGRICOLA*      NOT AVBL

$$

MARINE OBSERVATIONS

STATION/POSITION TIME  TEMP    WIND        PRES    WAVE
                       AIR SEA DIR/SP/G            HT/PER
                 (UTC) (F)     (DEG/KT/KT) (MB)    (FT/S)
PASCAGOULA       0536           10/ 13/ 19 1030.5F
PETIT BOIS ISLND 0542           10/ 21/ 26 1030.6F
GRAND BAY        0430   45      10/  9     1031.0S
KATRINA CUT      0530   44      10/ 21     1029.8F
CEDAR POINT      0530   44     360/ 13     1029.5S
E DAUPHIN ISLAND 0600   47      10/ 23/ 25 1029.6F
MIDDLE BAY LIGHT 0500           10/ 23     1029.8
USCG MOBILE BAY  0542          360/ 10/ 14 1031.4R
STATE DOCKS      0542                      1030.5R
MEAHER PARK      0530   43     360/  8     1030.5F
WEEKS BAY        0445   44                   N/A
12 S ORANGE BCH  0550   50 69   20/ 23/ 29 1028.8R   4/ 4
PENSACOLA BAY    0542           10/  8/ 12 1029.4R
64 S DAUPHIN ISL 0550   56 74   20/ 25/ 31 1027.8S   8/ 7
67 S FORT MORGAN 0530   56      30/ 23     1026.8F

$$

SELECTED LOCATIONS ACROSS THE REGION

CITY           SKY/WX    TMP DP  RH WIND       PRES   REMARKS
NEW ORLEANS    CLOUDY    46  31  55 N16G23    30.47R
GULFPORT       CLOUDY    44  26  49 N13       30.44F
PASCAGOULA AP  PTCLDY    42  25  50 N13       30.44S
PASCAGOULA*    NOT AVBL
HATTIESBURG    PTCLDY    40  26  57 N9        30.50R
LAUREL         PTCLDY    39  23  52 N12       30.51S
MERIDIAN       PTCLDY    36  21  54 N12G18    30.53S
JACKSON        CLEAR     34  22  61 N9        30.56R WCI  27
MONTGOMERY     CLOUDY    41  23  48 NW9       30.45S
TROY           CLOUDY    39  23  52 N8        30.42S
ASHFORD*         N/A     39  27  60 VRB6      30.38F
DOTHAN         MOCLDY    40  28  62 N9        30.41F
PANAMA CITY    MOCLDY    46  28  49 N10       30.34S

$$





USA.gov is the U.S. government's official web portal to all federal, state and local government web resources and services.